Home > Weather > Huambo > Past weeks

Flag for Angola Weather for the Past 2 Weeks in Huambo, Angola

Now
77 °F

Passing clouds.


Feels Like: 78 °F
Forecast: 49 / 79 °F
Wind: 5 mph from Southeast

Location: Luanda Airport

Current Time: May 1, 2016 at 7:12:47 AM

Latest Report: May 1, 2016 at 6:00 AM


Visibility: N/A

Pressure: 29.80 "Hg (24.47 "Hg at 1720m altitude)

Humidity: 89%

Dew Point: 73 °F

Location of HuamboLocation

Historic Weather in Huambo — Graph

°F

Huambo Temperature Yesterday

Maximum temperature yesterday: 88 °F (at 11:00 AM)
Minimum temperature yesterday: 77 °F (at 5:00 AM)
Average temperature yesterday: 82 °F

High & Low Weather Summary for the Past Weeks

 TemperatureHumidityPressure
High90 °F (Apr 17, 12:00 PM)100% (Apr 19, 6:00 AM)30.24 "Hg (Apr 19, 6:00 AM)
Low61 °F (Apr 19, 6:00 AM)59% (Apr 29, 11:00 AM)29.71 "Hg (Apr 23, 3:00 PM)
Average82 °F82%29.83 "Hg
* Reported Apr 16 7:00 AM — May 1 6:00 AM, Huambo, Weather by CustomWeather, © 2016

Note: Actual official high and low records may vary slightly from our data, if they occured in-between our weather recording intervals... More about our weather records

Advertising

Huambo Weather History for the Previous 24 Hours

Scroll right to see more
 ConditionsComfort  
Time TempWeatherWind HumidityBarometerVisibility
6:00 AM
Sun, May 1
77 °FPassing clouds.5 mph89%29.80 "HgN/A
5:00 AM79 °FPassing clouds.6 mph89%29.80 "HgN/A
4:00 AM79 °FPassing clouds.7 mph84%29.80 "HgN/A
3:00 AM79 °FPassing clouds.7 mph84%29.80 "HgN/A
2:00 AM79 °FPassing clouds.9 mph84%29.80 "HgN/A
1:00 AM79 °FPassing clouds.6 mph84%29.80 "HgN/A
12:00 AM81 °FPassing clouds.7 mph84%29.83 "HgN/A
11:00 PM
Sat, Apr 30
79 °FPassing clouds.8 mph89%29.86 "HgN/A
10:00 PM81 °FPassing clouds.8 mph70%29.86 "HgN/A
9:00 PM81 °FPassing clouds.7 mph79%29.83 "HgN/A
8:00 PM81 °FPassing clouds.7 mph84%29.83 "HgN/A
7:00 PM82 °FPassing clouds.9 mph79%29.80 "HgN/A
6:00 PM82 °FPassing clouds.12 mph74%29.77 "HgN/A
5:00 PM84 °FPassing clouds.12 mph74%29.77 "HgN/A
4:00 PM86 °FPassing clouds.10 mph66%29.77 "HgN/A
3:00 PM86 °FPassing clouds.10 mph66%29.77 "HgN/A
2:00 PM88 °FScattered clouds.9 mph66%29.80 "HgN/A
1:00 PM88 °FScattered clouds.9 mph62%29.80 "HgN/A
12:00 PM88 °FPartly sunny.5 mph66%29.83 "HgN/A
11:00 AM88 °FPartly sunny.5 mph62%29.86 "HgN/A
10:00 AM86 °FScattered clouds.5 mph70%29.89 "HgN/A
9:00 AM82 °FScattered clouds.7 mph74%29.89 "HgN/A
8:00 AM81 °FPassing clouds.7 mph84%29.86 "HgN/A
7:00 AM77 °FPartly sunny.6 mph94%29.83 "HgN/A
Weather by CustomWeather, © 2016

See weather overviewHow to use our weather pages